GW2749 Weather Reports


time (UTC)temp
F
wind
direction
speed
knots
gust
knots
rain 1hr
in
rain 24hr
in
rain mn
in
humidity
%
barometer
mb
20260506024551 72 39 7.8 13.9 0.00 0.00 0.00 18 1011.3
20260506023054 73 39 8.7 13.9 0.00 0.00 0.00 18 1011.0
20260506021558 75 38 12.2 19.1 0.00 0.00 0.00 16 1010.9
20260506020048 76 38 9.6 15.6 0.00 0.00 0.00 18 1010.7
20260506014551 76 38 7.8 13.0 0.00 0.00 0.00 19 1010.5
20260506013053 74 38 6.1 9.6 0.00 0.00 0.00 21 1010.4
20260506011554 75 39 7.8 19.1 0.00 0.00 0.00 20 1010.3
20260506010056 75 39 13.0 19.1 0.00 0.00 0.00 20 1010.2
20260506004556 76 39 3.5 7.0 0.00 0.00 0.00 23 1010.1
20260506003046 76 39 0.9 5.2 0.00 0.00 0.00 22 1009.9
20260506001604 75 0 0.0 5.2 0.00 0.00 0.00 23 1010.1
20260506000053 75 18 0.0 3.5 0.00 0.00 0.00 24 1010.1
20260505234607 75 0 0.0 3.5 0.00 0.00 0.00 23 1010.0
20260505233050 75 0 0.9 5.2 0.00 0.00 0.00 23 1009.9
20260505231553 75 0 2.6 6.1 0.00 0.00 0.00 23 1009.9
20260505230052 76 0 2.6 7.8 0.00 0.00 0.00 24 1009.9
20260505224549 75 39 0.9 4.3 0.00 0.00 0.00 25 1010.1
20260505223104 76 348 2.6 9.6 0.00 0.00 0.00 24 1010.4
20260505221553 76 18 1.7 10.4 0.00 0.00 0.00 25 1010.7
20260505220051 74 0 5.2 12.2 0.00 0.00 0.00 26 1010.7
20260505214559 75 17 2.6 12.2 0.00 0.00 0.00 26 1010.8
20260505213048 74 17 7.0 10.4 0.00 0.00 0.00 27 1011.2
20260505211610 74 18 4.3 13.9 0.00 0.00 0.00 27 1011.1
20260505210051 73 18 5.2 13.0 0.00 0.00 0.00 28 1011.2
20260505204549 74 0 2.6 11.3 0.00 0.00 0.00 27 1011.2
20260505203105 74 109 1.7 9.6 0.00 0.00 0.00 28 1011.3
20260505201548 73 105 1.7 6.1 0.00 0.00 0.00 28 1011.3
20260505200055 72 76 1.7 7.0 0.00 0.00 0.00 29 1011.5
20260505194549 71 18 2.6 9.6 0.00 0.00 0.00 30 1011.6
20260505193050 71 18 3.5 9.6 0.00 0.00 0.00 30 1011.9
20260505191556 70 18 5.2 7.8 0.00 0.00 0.00 32 1011.7
20260505190054 69 18 0.9 7.8 0.00 0.00 0.00 34 1011.9
20260505184555 70 18 4.3 8.7 0.00 0.00 0.00 32 1011.9
20260505183050 69 79 1.7 7.0 0.00 0.00 0.00 33 1011.7
20260505181553 68 89 5.2 10.4 0.00 0.00 0.00 34 1011.8
20260505180057 67 0 3.5 10.4 0.00 0.00 0.00 36 1011.7
20260505174552 67 0 1.7 7.8 0.00 0.00 0.00 37 1011.7
20260505173053 65 0 1.7 7.0 0.00 0.00 0.00 38 1011.8
20260505171549 65 44 1.7 4.3 0.00 0.00 0.00 41 1011.9
20260505170053 63 0 0.9 5.2 0.00 0.00 0.00 45 1011.9
20260505164553 62 0 0.0 5.2 0.00 0.00 0.00 46 1011.9
20260505163051 61 44 2.6 5.2 0.00 0.00 0.00 49 1012.0
20260505161553 60 46 1.7 5.2 0.00 0.00 0.00 53 1011.9
20260505153055 58 0 0.0 3.5 0.00 0.00 0.00 58 1011.8
20260505151556 57 0 0.0 1.7 0.00 0.00 0.00 60 1011.6
20260505140104 51 0 0.0 0.0 0.00 0.00 0.00 71 1010.9
20260505124556 43 235 1.7 3.5 0.00 0.00 0.00 81 1010.1
20260505123055 42 0 0.0 0.0 0.00 0.00 0.00 79 1010.0
20260505121551 44 0 0.0 0.0 0.00 0.00 0.00 80 1009.8
20260505120107 43 0 0.0 0.0 0.00 0.00 0.00 79 1009.5
20260505114557 45 0 0.0 2.6 0.00 0.00 0.00 76 1009.7
20260505113106 47 0 0.0 0.9 0.00 0.00 0.00 74 1009.9
20260505111550 47 18 0.0 3.5 0.00 0.00 0.00 74 1009.8
20260505101558 45 0 0.0 0.0 0.00 0.00 0.00 72 1009.4
20260505100055 46 267 2.6 4.3 0.00 0.00 0.00 72 1009.3
20260505094600 48 0 0.0 0.9 0.00 0.00 0.00 70 1009.2
20260505093056 48 116 1.7 3.5 0.00 0.00 0.00 70 1009.2
20260505091552 48 0 1.7 3.5 0.00 0.00 0.00 69 1009.1
20260505084603 46 0 0.9 2.6 0.00 0.00 0.00 70 1009.2
20260505083103 46 0 0.0 0.0 0.00 0.00 0.00 69 1009.4
20260505081556 48 0 0.0 0.0 0.00 0.00 0.00 64 1009.4
20260505080052 49 256 1.7 2.6 0.00 0.00 0.00 65 1009.3
20260505074556 49 0 0.0 2.6 0.00 0.00 0.00 64 1009.2
20260505073055 51 0 0.0 2.6 0.00 0.00 0.00 61 1009.3
20260505071550 50 0 0.0 2.6 0.00 0.00 0.00 63 1009.4
20260505070101 53 0 0.0 0.0 0.00 0.00 0.00 58 1009.3
20260505064554 54 0 0.0 3.5 0.00 0.00 0.00 58 1009.1
20260505063048 54 150 2.6 5.2 0.00 0.00 0.00 58 1008.9
20260505061611 53 162 2.6 3.5 0.00 0.00 0.00 57 1008.6
20260505060057 55 132 2.6 3.5 0.00 0.00 0.00 55 1008.7
20260505054556 55 0 0.0 3.5 0.00 0.00 0.00 56 1008.6
20260505053054 55 0 0.0 6.1 0.00 0.00 0.00 55 1008.7
20260505051558 55 0 0.9 4.3 0.00 0.00 0.00 54 1008.6
20260505041556 64 169 4.3 11.3 0.00 0.00 0.00 39 1007.9
20260505040059 64 221 4.3 10.4 0.00 0.00 0.00 38 1007.9
20260505034554 64 213 6.1 11.3 0.00 0.00 0.00 39 1008.0
20260505033059 64 18 8.7 13.9 0.00 0.00 0.00 40 1008.5
20260505031555 64 17 4.3 7.0 0.00 0.00 0.00 40 1008.2
20260505030049 64 18 7.0 14.8 0.00 0.00 0.00 41 1007.8